Find Starlink 30382

NORAD ID: 57786 Int'l Des: 2023-134 Owner: SPXS Country: US Constellation: starlink operational
LEOCIRCULAR

現在のビュー

3D地球を読み込み中...

About Starlink 30382

Starlink 30382 (NORAD 57786) is a starlink constellation satellite (v2 mini) launched Sep 4, 2023 by SPXS of US. It operates in LEO, CIRCULAR orbit with a mass of 730.00 kg.

Starlink 30382について

説明を読み込み中...

次回通過

Passes for default location (London). Set your location on the main map for personalized predictions.

高度履歴

Loading altitude history...

軌道要素

1 57786U 23134R 26175.09471668 .00000352 00000-0 22305-4 0 9994
2 57786 43.0040 313.2644 0001579 263.2629 96.8043 15.27581096155781
Epoch: Jun 24, 2026 • Age: 26 hours

現在のステータス

高度 490.0 km
速度 7.62 km/s
衛星直下点 -29.21°S, 74.2°W
打ち上げ日 Sep 4, 2023
運用期間 2.8 years
タイプ internet

技術仕様

分類 Payload
質量 730.00 kg
乾燥質量 700.00 kg
総質量 730.00 kg
長さ 0.30 m
直径 4.10 m
スパン 29.00 m
形状 Box + pan
製造者 SPXS
バスタイプ Starlink V2M
フェーズステータス In Orbit
所有者/国 SPXS/US

Most Searched